Regional Weather Roundup
Issued by NWS

Home | Current Version | Previous Version | Text Only | Print | Product List | Glossary On
Versions: 1 2 3 4 5 6 7 8 9 10 11 12 13 14 15 16 17 18 19 20 21 22 23 24 25 26 27 28 29 30 31 32 33 34 35 36 37 38 39 40 41 42 43 44 45 46 47 48 49 50
000
ASUS43 KFSD 051802
RWRSD

WEATHER ROUNDUP FOR SOUTH DAKOTA
NATIONAL WEATHER SERVICE SIOUX FALLS SD
100 PM CDT TUE MAY 05 2015

NOTE: "FAIR" INDICATES FEW OR NO CLOUDS BELOW 12,000 FEET WITH NO
SIGNIFICANT WEATHER AND/OR OBSTRUCTIONS TO VISIBILITY.


SDZ001>005-009-010-012>017-051900-
NORTHWEST AND NORTH CENTRAL SOUTH DAKOTA

CITY           SKY/WX    TMP DP  RH WIND       PRES   REMARKS
BUFFALO          N/A     70  48  45 S26G37    29.83F
FAITH            N/A     64  49  57 SE23G30   29.96F
MOBRIDGE       SUNNY     74  36  25 S20       29.98F
$$

SDZ012>016-024>037-041>051-057-063-072>074-051900-
SOUTHWEST AND SOUTH CENTRAL SOUTH DAKOTA

CITY           SKY/WX    TMP DP  RH WIND       PRES   REMARKS
RAPID CTY ARPT CLOUDY    61  47  59 SE16G23   29.96F
PIERRE         PTSUNNY   72  44  36 SE18G26   29.99F
CUSTER           N/A    N/A N/A N/A MISG      29.99S
ELLSWORTH AFB  CLOUDY    62  48  58 S16G22    29.95F
PHILIP         CLOUDY    60  51  72 SE20G25   29.98F
PINE RIDGE     CLOUDY    58  48  69 S9        29.98F
WINNER         CLOUDY    63  50  62 SE20      30.02F
$$

SDZ004>011-016>023-039-040-051900-
NORTHEAST SOUTH DAKOTA

CITY           SKY/WX    TMP DP  RH WIND       PRES   REMARKS
ABERDEEN       SUNNY     75  33  21 SE17G25   30.05F
WATERTOWN      SUNNY     72  37  28 SE13G24   30.07F
BROOKINGS      CLOUDY    70  48  46 SE23G29   30.08S
SISSETON         N/A     74  25  16 S16G29    30.07F
$$

SDZ017-020-022-023-036>040-048>070-051900-
SOUTHEAST SOUTH DAKOTA

CITY           SKY/WX    TMP DP  RH WIND       PRES   REMARKS
SIOUX FALLS    CLOUDY    67  56  67 SE14      30.07S
HURON          MOSUNNY   74  41  30 S15G24    30.02F
MITCHELL       CLOUDY    70  47  43 SE15      30.04F
YANKTON        CLOUDY    63  55  77 SE10      30.05F
$$

ABBREVIATIONS USED IN REMARKS
   TC - TEMPERATURE IN CELSIUS
  WCI - WIND CHILL INDEX
   HX - HEAT INDEX
  VSB - VISIBILITY



USA.gov is the U.S. government's official web portal to all federal, state and local government web resources and services.